Tracking 28799 objects as of 18-Apr-2024
HD Live streaming from Space Station
objects crossing your sky now

OPS 5712 (P/L 160)

Track OPS 5712 (P/L 160) now!
10-day predictions
OPS 5712 (P/L 160) is classified as:


NORAD ID: 2826
Int'l Code: 1967-053A
Perigee: 704.2 km
Apogee: 708.1 km
Inclination: 69.9 °
Period: 98.8 minutes
Semi major axis: 7077 km
RCS: 0.3991 m2 (medium)
Launch date: May 31, 1967
Source: United States (US)
Launch site: AIR FORCE WESTERN TEST RANGE (AFWTR)
Your satellite tracking list
Your tracking list is empty




NASA's NSSDC Master Catalog

Two Line Element Set (TLE):
1  2826U 67053A   24109.14590461  .00011296  00000-0  24557-2 0  9999
2  2826  69.9247 147.6933 0002798 184.4970 175.6143 14.58191243950705
Source of the keplerian elements: AFSPC